Nantucket, MA

7:23 PM EDT on July 24, 2017 (GMT -0400)
Nantucket Memorial

Weather History for KACK - May, 2014

Change the Weather History Date:

Saturday, May 17, 2014

  Actual Average Record
Temperature  
Mean Temperature 56 °F -  
Max Temperature 63 °F 61 °F 78 °F (2015)
Min Temperature 50 °F 45 °F 30 °F (1957)
Degree Days  
Heating Degree Days 9    
Growing Degree Days 6 (Base 50)    
Moisture  
Dew Point 54 °F    
Average Humidity 89    
Maximum Humidity 100    
Minimum Humidity 77    
Precipitation  
Precipitation 0.69 in - - ()
Sea Level Pressure  
Sea Level Pressure 29.98 in    
Wind  
Wind Speed 15 mph (South)    
Max Wind Speed 22 mph    
Max Gust Speed 29 mph    
Visibility 5 miles    
Events Fog , Rain    
Averages and records for this station are not official NWS values.
T = Trace of Precipitation, MM = Missing Value Source: NWS Daily Summary

Daily Weather History Graph

Daily Weather History Graph

Search for Another Location

Airport or City:

Trip Planner

Search our weather history database for the weather conditions in past years. The results will help you decide how hot, cold, wet, or windy it might be!

Date:

Astronomy

May. 17, 2014 Rise Set
Actual Time 5:19 AM EDT 7:53 PM EDT
Civil Twilight 4:48 AM EDT 8:25 PM EDT
Nautical Twilight 4:08 AM EDT 9:05 PM EDT
Astronomical Twilight 3:24 AM EDT 9:49 PM EDT
Moon 10:51 PM EDT (5/17) 7:59 AM EDT (5/17)
Length of Visible Light 15h 37m
Length of Day
14h 33m
Waning Gibbous, 89% of the Moon is Illuminated
May 17
Waning Gibbous
May 21
Last Quarter
May 28
New
Jun 5
First Quarter
Jun 13
Full

Hourly Weather History & Observations

Time (EDT) Temp. Dew Point Humidity Pressure Visibility Wind Dir Wind Speed Gust Speed Precip Events Conditions
12:53 AM 57.0 °F 54.0 °F 89% 30.02 in 7.0 mi SE 16.1 mph - N/A   Overcast
1:53 AM 57.9 °F 55.0 °F 90% 29.99 in 6.0 mi SE 17.3 mph - N/A   Overcast
2:53 AM 57.9 °F 55.0 °F 90% 29.97 in 6.0 mi SE 16.1 mph - N/A   Overcast
3:02 AM 57.2 °F 55.4 °F 94% 29.97 in 5.0 mi SE 16.1 mph - 0.00 in Rain Light Rain
3:21 AM 57.2 °F 55.4 °F 94% 29.96 in 3.0 mi SE 17.3 mph - 0.00 in Rain Light Rain
3:24 AM 57.2 °F 55.4 °F 94% 29.96 in 4.0 mi SE 16.1 mph - 0.00 in Rain Light Rain
3:53 AM 57.0 °F 55.0 °F 93% 29.95 in 4.0 mi SE 17.3 mph - 0.01 in   Overcast
4:11 AM 57.2 °F 55.4 °F 94% 29.95 in 1.8 mi SE 17.3 mph - N/A   Overcast
4:40 AM 57.2 °F 55.4 °F 94% 29.95 in 0.8 mi SE 20.7 mph 27.6 mph N/A   Mist
4:53 AM 57.9 °F 55.9 °F 93% 29.95 in 0.5 mi SE 20.7 mph 26.5 mph N/A Fog Fog
5:53 AM 57.9 °F 55.9 °F 93% 29.94 in 0.5 mi SE 18.4 mph 26.5 mph N/A Fog Fog
6:06 AM 57.2 °F 55.4 °F 94% 29.94 in 0.5 mi SE 19.6 mph - N/A Fog Fog
6:53 AM 57.0 °F 55.9 °F 96% 29.94 in 0.5 mi SE 21.9 mph - 0.01 in Fog , Rain Light Rain
7:53 AM 57.9 °F 55.9 °F 93% 29.94 in 0.8 mi SSE 19.6 mph 27.6 mph 0.24 in Rain Heavy Rain
8:53 AM 57.9 °F 55.9 °F 93% 29.94 in 1.5 mi SSE 18.4 mph 28.8 mph 0.17 in   Overcast
9:07 AM 57.2 °F 57.2 °F 100% 29.93 in 0.5 mi SSE 20.7 mph - 0.03 in Fog Fog
9:33 AM 59.0 °F 57.2 °F 94% 29.94 in 1.2 mi South 17.3 mph 27.6 mph 0.20 in Rain Light Rain
9:53 AM 60.1 °F 57.9 °F 93% 29.95 in 1.2 mi South 13.8 mph - 0.26 in Rain Light Rain
10:09 AM 57.2 °F 55.4 °F 94% 29.95 in 0.5 mi South 8.1 mph - 0.00 in Fog Fog
10:40 AM 60.8 °F 59.0 °F 94% 29.94 in 3.0 mi WSW 5.8 mph - 0.00 in   Overcast
10:42 AM 62.6 °F 60.8 °F 94% 29.94 in 3.0 mi West 5.8 mph - 0.00 in   Mostly Cloudy
10:53 AM 62.1 °F 60.1 °F 93% 29.95 in 8.0 mi West 9.2 mph - 0.00 in   Overcast
11:00 AM 62.6 °F 60.8 °F 94% 29.95 in 10.0 mi WSW 8.1 mph - N/A   Overcast
11:53 AM 61.0 °F 55.9 °F 83% 29.97 in 10.0 mi West 15.0 mph - N/A   Mostly Cloudy
12:03 PM 62.6 °F 55.4 °F 77% 29.98 in 10.0 mi West 12.7 mph - N/A   Scattered Clouds
12:53 PM 60.1 °F 54.0 °F 80% 29.99 in 10.0 mi SW 13.8 mph - N/A   Partly Cloudy
1:39 PM 57.2 °F 53.6 °F 88% 29.99 in 7.0 mi SW 13.8 mph - N/A   Scattered Clouds
1:53 PM 59.0 °F 53.1 °F 81% 29.99 in 10.0 mi SW 12.7 mph - N/A   Scattered Clouds
2:53 PM 59.0 °F 52.0 °F 78% 29.99 in 10.0 mi SW 13.8 mph - N/A   Clear
3:53 PM 59.0 °F 52.0 °F 78% 30.00 in 10.0 mi SSW 9.2 mph - N/A   Clear
4:53 PM 57.9 °F 51.1 °F 78% 30.01 in 10.0 mi SSW 8.1 mph - N/A   Clear
5:53 PM 55.9 °F 50.0 °F 80% 30.01 in 10.0 mi SW 9.2 mph - N/A   Clear
6:53 PM 55.0 °F 50.0 °F 83% 30.02 in 10.0 mi SW 6.9 mph - N/A   Clear
7:53 PM 51.1 °F 48.0 °F 89% 30.03 in 5.0 mi SSW 5.8 mph - N/A   Clear
8:53 PM 51.1 °F 48.0 °F 89% 30.04 in 9.0 mi SSW 5.8 mph - N/A   Clear
9:53 PM 50.0 °F 46.9 °F 89% 30.05 in 6.0 mi South 4.6 mph - N/A   Clear
10:53 PM 53.1 °F 46.9 °F 80% 30.06 in 10.0 mi WSW 10.4 mph - N/A   Clear
11:53 PM 51.1 °F 46.9 °F 86% 30.05 in 10.0 mi WSW 5.8 mph - N/A   Clear